C/2013 V4 ( Catalina )

Japanese version
Home page
Updated on January 17, 2017

---------------------------------------------------------------------

* Profile

Discovery Date November 9, 2013
Magnitude 17.7 mag
Discoverer R. E. Hill (Catalina Sky Survey)

* Pictures

* Orbital Elements

Epoch 2015 Oct. 25.0 TT = JDT 2457320.5
T 2015 Oct. 7.60566 TT                                  MPCW
q   5.1853894            (2000.0)            P               Q
z  -0.0004940      Peri.   40.44982     +0.22785448     -0.60308259
 +/-0.0000003      Node    55.62128     +0.46388659     -0.62303450
e   1.0025616      Incl.   67.85534     +0.85609086     +0.49811585
From 1962 observations 2013 Oct. 23-2016 Nov. 4, mean residual 0".5.

* Finding Charts

* Magnitudes Graph

        m1 = 5.0 + 5 log d + 10.0 log r

---------------------------------------------------------------------

The orbital elements are published on M.P.E.C. 2016-V116.
The charts are made with StellaNavigator Ver.8 (AstroArts).
The magnitudes graphs are made with Comet for Windows.

---------------------------------------------------------------------

Copyright(C) Seiichi Yoshida (comet@aerith.net). All rights reserved.